Cloud_Cover
100 100 100 100 86 100 100 100 100 100 100 24 19 0 1 5 23 5 7 14 100 100 100 99 100 100 100 100 53 5 3 5 4 2 26 5 2 14 0 0 0 0 0 0 0
100 100 100 100 100 100 100 100 100 100 51 26 25 0 0 8 9 5 5 46 100 16 98 68 100 10 100 92 100 5 3 5 5 5 0 5 4 13 1 0 0 0 0 0 0
100 100 100 100 100 100 100 100 50 75 24 24 17 0 0 5 6 5 5 98 98 93 100 100 100 100 100 100 78 5 2 2 0 1 0 2 5 24 0 0 0 0 0 0 0
100 100 100 100 100 100 100 100 41 26 23 3 2 0 0 5 5 5 5 100 100 100 97 100 100 97 100 100 100 12 2 5 5 5 5 5 5 16 3 17 0 0 0 0 0
100 100 100 100 100 100 97 62 26 26 12 0 0 0 0 3 4 4 5 100 100 24 100 99 56 39 100 100 100 100 59 85 15 6 3 1 11 8 42 2 0 0 0 0 0
100 100 100 100 100 100 99 46 28 7 0 0 0 0 0 0 0 0 5 78 100 47 100 5 92 95 100 69 97 100 94 24 78 5 2 25 4 1 0 0 0 0 0 0 0
100 100 100 100 100 100 65 28 23 2 0 0 0 0 0 0 0 0 0 95 100 100 100 100 48 100 100 88 97 100 100 5 5 74 3 0 2 5 0 0 0 0 0 0 0
100 100 100 100 100 100 34 18 11 0 0 0 0 0 0 0 0 0 1 97 100 100 100 100 83 99 27 100 99 100 100 100 33 5 5 2 3 1 0 0 0 0 0 0 0
100 100 100 100 100 100 16 15 0 0 0 0 0 0 0 0 2 5 2 10 100 100 100 100 100 100 98 100 35 100 100 100 100 15 29 44 4 0 0 0 0 0 0 0 0
100 100 100 100 100 100 47 0 0 0 0 0 0 0 0 0 3 5 6 39 100 100 100 100 100 100 100 100 13 100 100 100 100 86 52 78 52 36 0 0 0 0 0 0 0
100 100 100 100 100 100 22 0 0 0 0 0 0 0 0 0 0 4 5 5 87 82 92 100 100 100 100 98 100 100 100 100 100 91 36 24 6 5 0 0 0 0 0 0 0
100 100 100 100 100 100 46 0 0 0 0 0 0 0 0 3 5 5 5 9 73 39 63 100 100 98 99 96 100 99 100 100 100 90 87 9 5 5 0 0 0 2 0 0 0
100 100 100 100 100 10 0 0 0 0 0 0 0 0 0 46 20 5 5 5 57 96 93 84 42 54 72 99 100 100 100 100 81 63 17 16 3 5 3 0 0 0 5 0 0
100 100 100 100 12 0 0 0 0 0 0 0 0 0 43 97 70 49 5 20 28 76 98 100 97 99 100 94 39 94 100 64 5 6 5 17 11 5 2 0 0 0 12 1 0
100 100 100 98 72 0 0 0 0 2 0 2 0 17 8 100 59 95 6 5 5 100 29 100 100 100 100 72 42 96 100 59 5 5 5 19 87 5 0 0 0 0 0 2 0
100 100 99 5 79 2 0 0 0 2 1 0 0 51 33 98 100 19 53 14 7 5 43 63 72 99 100 20 21 99 100 30 82 64 92 18 5 2 5 0 0 0 0 5 0
100 100 69 18 0 0 0 0 2 55 0 0 2 65 76 21 91 38 100 99 48 7 45 96 98 100 94 40 100 98 100 100 100 100 80 94 67 56 8 4 5 0 4 40 9
100 98 10 5 0 0 0 0 52 17 42 2 37 7 5 5 98 32 42 100 86 99 89 98 81 100 24 53 100 100 100 100 100 100 100 100 100 86 95 100 10 2 5 5 5
96 12 26 1 0 0 0 0 5 99 44 34 92 60 25 94 99 14 73 94 99 100 74 99 85 73 100 100 100 100 100 100 100 97 98 97 100 100 50 48 80 97 20 7 5
6 0 5 0 0 0 0 4 5 100 7 10 5 61 20 81 12 76 92 100 72 100 72 97 100 100 100 100 100 100 100 100 93 100 100 100 100 84 98 88 43 71 96 84 9
3 3 2 0 0 0 0 25 12 100 60 100 6 29 100 100 100 99 100 100 100 100 100 100 100 100 100 100 100 100 28 26 87 100 100 80 98 28 96 23 8 97 89 95 100
0 3 2 0 0 3 0 65 100 100 100 100 96 36 98 89 99 100 100 100 100 100 100 100 89 99 91 82 28 52 28 42 62 73 100 61 41 5 50 6 5 53 18 5 5
1 5 0 0 12 4 1 99 44 100 100 100 100 32 90 22 87 59 97 100 100 100 100 99 100 100 93 6 9 33 27 80 23 99 98 7 5 5 5 5 5 13 23 60 5
1 4 4 0 48 4 4 73 42 100 100 100 100 100 100 81 48 100 79 93 59 100 100 100 100 100 99 100 100 100 100 96 100 84 79 10 5 5 5 5 5 5 5 5 2
4 85 48 4 5 5 1 100 9 100 53 100 100 99 75 89 100 98 91 94 91 100 100 100 100 100 100 100 100 100 100 100 100 79 10 5 9 5 5 5 5 22 53 4 5
99 100 31 1 5 0 0 100 64 5 100 100 100 100 100 98 30 39 30 100 100 100 100 100 100 100 100 100 100 100 100 100 100 100 100 100 7 0 5 20 8 5 5 5 5
100 99 5 0 5 4 36 100 74 49 100 100 100 100 100 100 78 85 21 100 100 100 100 100 100 100 100 100 100 100 100 88 100 100 98 90 22 53 91 57 59 10 5 5 5